User: anonymous   Login
Location: Unspecified
(0.0000°N, 0.0000°E)
Time: 16:39:00
(UTC+00:00)
Language:

OFEQ 11 - Orbit

View from above orbital plane
View from above orbital plane
View from above satellite
View from above satellite

Ground track
Ground track

The orbit data is extracted from the following two-line orbital elements,

1 41759U 16056A   16262.14637733 0.00093953  00000-0  25000-2 0    06
2 41759 141.9581 325.4435 0161478  71.2254 181.1514 15.25030193    01
Epoch (UTC): 18 September 2016 03:30:47
Eccentricity: 0.0161478
inclination: 141.9581°
perigee height: 380 km
apogee height: 601 km
right ascension of ascending node: 325.4435°
argument of perigee: 71.2254°
revolutions per day: 15.25030193
mean anomaly at epoch: 181.1514°
orbit number at epoch: 0

The dashed part of the orbit path shows where the satellite is in the earth's shadow,  

DLR